Location: Anumalkud?ru
(16.4847°N, 80.6636°E)
Time: 23:54:00
(UTC+00:00)

SAR-Lupe-1 - Pass Details

Date: 11 April 2026
Orbit: 479 x 484 km, 98.1° (Epoch: 10 January)

Event Time Altitude Azimuth Distance (km) Brightness Sun altitude
Rises 13:39:34 0° 171° (S) 2,513 7.5 -12.0°
Reaches altitude 10° 13:41:37 10° 173° (S) 1,637 6.5 -12.5°
Maximum altitude 13:45:08 73° 258° (WSW) 499 4.2 -13.3°
Drops below altitude 10° 13:48:39 10° 344° (NNW) 1,643 7.1 -14.2°
Sets 13:50:42 0° 346° (NNW) 2,523 8.1 -14.6°
